Regional Weather Roundup
Issued by NWS

Home | Current Version | Previous Version | Graphics & Text | Print | Product List | Glossary On
Versions: 1 2 3 4 5 6 7 8 9 10 11 12 13 14 15 16 17 18 19 20 21 22 23 24 25 26 27 28 29 30 31 32 33 34 35 36 37 38 39 40 41 42 43 44 45 46 47 48 49 50
000
ASUS43 KLOT 051600
RWRIL

ILLINOIS REGIONAL WEATHER ROUNDUP
NATIONAL WEATHER SERVICE CHICAGO/ROMEOVILLE IL
1100 AM CDT TUE MAY 05 2015

NOTE: "FAIR" INDICATES FEW OR NO CLOUDS BELOW 12,000 FEET WITH NO
SIGNIFICANT WEATHER AND/OR OBSTRUCTIONS TO VISIBILITY.

* THESE STATIONS ARE NOT UNDER NWS QUALITY CONTROL. THEY ALSO MAY NOT
  REPORT WEATHER SUCH AS PRECIPITATION OR FOG.

ILZ001-002-007-009-015-016-024-051700-
NORTHWEST ILLINOIS

CITY           SKY/WX    TMP DP  RH WIND       PRES   REMARKS
MOLINE         CLOUDY    65  60  84 E10       30.17S HAZE
STERLING*      CLOUDY    59  55  88 E12       30.21R
$$

ILZ003-004-008-010-011-017-018-051700-
NORTH CENTRAL ILLINOIS

CITY           SKY/WX    TMP DP  RH WIND       PRES   REMARKS
ROCKFORD       CLOUDY    55  51  86 NE9       30.26R
$$

ILZ005-006-012>014-019>023-051700-
NORTHEAST ILLINOIS

CITY           SKY/WX    TMP DP  RH WIND       PRES   REMARKS
CHICAGO-OHARE  CLOUDY    50  50 100 NE7       30.24R FOG
CHICAGO-MIDWAY CLOUDY    54  52  93 N7        30.23R FOG
AURORA         CLOUDY    58  54  86 E12       30.22S FOG
WAUKEGAN       LGT RAIN  47  46  97 NE9       30.25S
DUPAGE AIRPORT FOG       54  52  93 E10       30.23R VSB 1
WHEELING       CLOUDY    49  47  93 NE5       30.27R FOG
NORTHERLY ISL    N/A     48  47  96 N3          N/A
$$

LMZ740>746-051700-
SOUTHERN LAKE MICHIGAN

STATION/POSITION SKY/WX   TEMP    WIND        PRES    VSBY  WAVE
                          AIR SEA DIR/SP/G                  HT/PER
                          (F)     (DEG/KT/KT) (MB)    (MI)  (FT/S)
HARRISON CRIB              45      90/  3/  5   N/A
BURNHAM HARBOR             49     350/  3/  6   N/A
CALUMET HARBOR             48      20/  3/  5   N/A
BURNS HARBOR               51      60/  7/  9 1023.4S
MICHIGAN CITY              51      20/  7/  7   N/A
MICHIGAN CITY 6N           50 49   70/  6/ 10   N/A           2/ 3
ST. JOSEPH                 53 49  140/  6/  8   N/A           1/ 2
$$

ILZ025>027-034>036-040-047-049-050-058-095>099-051700-
WEST-CENTRAL ILLINOIS

CITY           SKY/WX    TMP DP  RH WIND       PRES   REMARKS
QUINCY         SUNNY     74  60  61 SW8       30.16S
$$

ILZ028>032-037-038-041>044-048-051>054-059>061-051700-
CENTRAL ILLINOIS

CITY           SKY/WX    TMP DP  RH WIND       PRES   REMARKS
DECATUR        MOSUNNY   79  58  48 SW14      30.19S HX  80
PEORIA         PTSUNNY   74  63  68 VRB3      30.17S
SPRINGFIELD    MOSUNNY   81  58  45 SW13G20   30.17S HX  81
TAYLORVILLE    NOT AVBL
$$

ILZ033-039-045-046-055>057-062-063-051700-
EAST-CENTRAL ILLINOIS

CITY           SKY/WX    TMP DP  RH WIND       PRES   REMARKS
CHAMPAIGN      MOSUNNY   81  55  40 SW16      30.19S HX  81
MATTOON        MOSUNNY   78  54  43 SW12G22   30.20S
$$

ILZ079-100>102-051700-
SOUTHWEST ILLINOIS

CITY           SKY/WX    TMP DP  RH WIND       PRES   REMARKS
ALTON          MOSUNNY   79  59  50 S12       30.20S HX  80
CAHOKIA*       MOSUNNY   81  57  43 VRB6      30.19F HX  81
$$

ILZ064>066-069>071-074>076-080>082-084>086-088>090-092>094-051700-
SOUTH-CENTRAL ILLINOIS

CITY           SKY/WX    TMP DP  RH WIND       PRES   REMARKS
CARBONDALE     SUNNY     80  58  46 SW9       30.23S HX  80
MARION         MOSUNNY   79  59  50 S9        30.25R HX  80
MT. VERNON     MOSUNNY  N/A N/A N/A SW10G17   30.24S
$$

ILZ067-068-072-073-078-083-087-091-051700-
SOUTHEAST ILLINOIS

CITY           SKY/WX    TMP DP  RH WIND       PRES   REMARKS
LAWRENCEVILLE  SUNNY     82  52  35 SW16      30.24R HX  81
$$

ABBREVIATIONS USED IN REMARKS
   TC - TEMPERATURE IN CELSIUS
  WCI - WIND CHILL INDEX
   HX - HEAT INDEX
  VSB - VISIBILITY
$$



USA.gov is the U.S. government's official web portal to all federal, state and local government web resources and services.